Weather History for KFCM - March, 2013

Change the Weather History Date:

Monday, March 4, 2013

  Actual Average Record
Temperature  
Mean Temperature 26 °F -  
Max Temperature 28 °F 27 °F 41 °F (2005)
Min Temperature 23 °F 14 °F -5 °F (2015)
Degree Days  
Heating Degree Days 40    
Moisture  
Dew Point 19 °F    
Average Humidity 79    
Maximum Humidity 88    
Minimum Humidity 53    
Precipitation  
Precipitation 0.17 in - - ()
Sea Level Pressure  
Sea Level Pressure 29.98 in    
Wind  
Wind Speed 11 mph (East)    
Max Wind Speed 17 mph    
Max Gust Speed 26 mph    
Visibility 3 miles    
Events Fog , Snow    
Averages and records for this station are not official NWS values.
T = Trace of Precipitation, MM = Missing Value Source: NWS Daily Summary

Daily Weather History Graph

Daily Weather History Graph

Search for Another Location

Airport or City:

Trip Planner

Search our weather history database for the weather conditions in past years. The results will help you decide how hot, cold, wet, or windy it might be!

Date:

Astronomy

Mar. 04, 2013 Rise Set
Actual Time 6:45 AM CST 6:05 PM CST
Civil Twilight 6:16 AM CST 6:35 PM CST
Nautical Twilight 5:42 AM CST 7:09 PM CST
Astronomical Twilight 5:08 AM CST 7:43 PM CST
Moon 1:06 AM CST (3/4) 10:37 AM CST (3/4)
Length of Visible Light 12h 18m
Length of Day
11h 20m
Waning Gibbous, 52% of the Moon is Illuminated
Mar 4
Waning Gibbous
Mar 4
Last Quarter
Mar 11
New
Mar 19
First Quarter
Mar 27
Full

Hourly Weather History & Observations

Time (CST) Temp. Windchill Dew Point Humidity Pressure Visibility Wind Dir Wind Speed Gust Speed Precip Events Conditions
12:53 AM 28.0 °F 19.3 °F 12.9 °F 53% 30.01 in 10.0 mi ESE 9.2 mph - N/A   Overcast
1:53 AM 28.0 °F 19.3 °F 12.9 °F 53% 30.00 in 10.0 mi ESE 9.2 mph - N/A   Overcast
2:53 AM 27.0 °F 16.7 °F 12.9 °F 56% 29.98 in 10.0 mi ESE 11.5 mph - N/A   Overcast
3:53 AM 27.0 °F 17.3 °F 12.9 °F 56% 29.96 in 10.0 mi East 10.4 mph - N/A   Overcast
4:53 AM 27.0 °F 15.2 °F 12.0 °F 53% 29.96 in 9.0 mi ESE 15.0 mph - N/A   Overcast
5:29 AM 24.8 °F 12.9 °F 15.8 °F 69% 29.94 in 2.0 mi ESE 13.8 mph - 0.00 in Snow Light Snow
5:40 AM 24.8 °F 13.4 °F 17.6 °F 74% 29.94 in 1.5 mi ESE 12.7 mph - 0.00 in Snow Light Snow
5:53 AM 24.1 °F 12.5 °F 18.0 °F 77% 29.98 in 1.0 mi ESE 12.7 mph - 0.00 in Snow Light Snow
5:56 AM 24.8 °F 14.0 °F 19.4 °F 80% 29.94 in 0.8 mi ESE 11.5 mph - 0.00 in Snow Light Snow
6:37 AM 23.0 °F 12.4 °F 19.4 °F 86% 29.94 in 1.0 mi East 10.4 mph - 0.00 in Snow Light Snow
6:53 AM 23.0 °F 10.6 °F 19.0 °F 85% 29.98 in 1.0 mi East 13.8 mph 19.6 mph 0.01 in Snow Light Snow
7:02 AM 23.0 °F 10.1 °F 19.4 °F 86% 29.93 in 0.5 mi East 15.0 mph 20.7 mph 0.00 in Fog , Snow Snow
7:26 AM 23.0 °F 11.7 °F 19.4 °F 86% 29.94 in 0.5 mi East 11.5 mph - 0.00 in Fog , Snow Snow
7:53 AM 23.0 °F 12.4 °F 19.9 °F 88% 29.98 in 0.8 mi East 10.4 mph 21.9 mph 0.01 in Snow Light Snow
8:53 AM 24.1 °F 12.0 °F 19.9 °F 84% 29.99 in 0.5 mi East 13.8 mph - 0.01 in Fog , Snow Light Snow
9:00 AM 24.8 °F 13.4 °F 19.4 °F 80% 29.95 in 0.8 mi East 12.7 mph - 0.00 in Snow Light Snow
9:53 AM 24.1 °F 12.0 °F 19.0 °F 81% 29.98 in 0.8 mi East 13.8 mph 25.3 mph 0.01 in Snow Light Snow
10:00 AM 24.8 °F 11.5 °F 19.4 °F 80% 29.93 in 2.0 mi East 17.3 mph 24.2 mph 0.00 in Snow Light Snow
10:13 AM 24.8 °F 12.4 °F 19.4 °F 80% 29.94 in 3.0 mi East 15.0 mph 26.5 mph 0.00 in Snow Light Snow
10:33 AM 24.8 °F 12.4 °F 17.6 °F 74% 29.95 in 2.5 mi ESE 15.0 mph 25.3 mph 0.00 in Snow Light Snow
10:53 AM 24.1 °F 10.6 °F 19.0 °F 81% 29.97 in 1.0 mi East 17.3 mph 24.2 mph 0.00 in Snow Light Snow
11:07 AM 24.8 °F 12.4 °F 17.6 °F 74% 29.94 in 3.0 mi East 15.0 mph 23.0 mph 0.01 in Snow Light Snow
11:30 AM 24.8 °F 11.9 °F 17.6 °F 74% 29.94 in 1.8 mi East 16.1 mph 20.7 mph 0.01 in Snow Light Snow
11:41 AM 24.8 °F 13.4 °F 17.6 °F 74% 29.93 in 0.5 mi East 12.7 mph - 0.01 in Snow Snow
11:53 AM 24.1 °F 12.5 °F 19.0 °F 81% 29.98 in 0.5 mi East 12.7 mph 21.9 mph 0.01 in Snow Snow
12:04 PM 24.8 °F 13.4 °F 19.4 °F 80% 29.93 in 1.8 mi East 12.7 mph 21.9 mph 0.00 in Snow Light Snow
12:10 PM 24.8 °F 12.4 °F 17.6 °F 74% 29.93 in 3.0 mi East 15.0 mph 20.7 mph 0.00 in Snow Light Snow
12:53 PM 26.1 °F 15.6 °F 16.0 °F 66% 29.98 in 10.0 mi ESE 11.5 mph - 0.00 in   Overcast
1:53 PM 27.0 °F 16.1 °F 12.9 °F 56% 29.96 in 10.0 mi ESE 12.7 mph - N/A   Overcast
2:53 PM 27.0 °F 15.2 °F 12.0 °F 53% 29.97 in 10.0 mi ESE 15.0 mph 21.9 mph N/A   Overcast
3:53 PM 26.1 °F 15.6 °F 14.0 °F 60% 29.99 in 10.0 mi East 11.5 mph - N/A   Overcast
4:53 PM 26.1 °F 16.2 °F 17.1 °F 69% 29.98 in 10.0 mi East 10.4 mph - N/A   Overcast
5:53 PM 25.0 °F 16.3 °F 18.0 °F 75% 29.99 in 8.0 mi East 8.1 mph - N/A   Overcast
6:45 PM 24.8 °F 15.3 °F 19.4 °F 80% 29.96 in 2.5 mi East 9.2 mph - 0.00 in Snow Light Snow
6:53 PM 25.0 °F 16.3 °F 19.0 °F 78% 30.01 in 4.0 mi East 8.1 mph - 0.00 in Snow Light Snow
7:26 PM 24.8 °F 16.1 °F 19.4 °F 80% 29.98 in 1.5 mi East 8.1 mph - 0.01 in Snow Light Snow
7:44 PM 24.8 °F 19.1 °F 21.2 °F 86% 29.99 in 0.5 mi East 4.6 mph - 0.02 in Fog , Snow Snow
7:48 PM 24.8 °F 19.1 °F 21.2 °F 86% 29.99 in 0.2 mi East 4.6 mph - 0.02 in Fog , Snow Heavy Snow
7:53 PM 24.1 °F - 21.0 °F 88% 30.04 in 0.5 mi Calm Calm - 0.03 in Fog , Snow Snow
8:04 PM 24.8 °F - 21.2 °F 86% 30.00 in 1.0 mi Calm Calm - 0.01 in Snow Light Snow
8:24 PM 24.8 °F 19.1 °F 21.2 °F 86% 30.00 in 0.5 mi East 4.6 mph - 0.02 in Fog , Snow Snow
8:42 PM 24.8 °F 19.1 °F 21.2 °F 86% 30.01 in 1.5 mi ENE 4.6 mph - 0.03 in Snow Light Snow
8:53 PM 24.1 °F 17.0 °F 21.0 °F 88% 30.05 in 1.5 mi ENE 5.8 mph - 0.03 in Snow Light Snow
8:57 PM 24.8 °F 17.9 °F 21.2 °F 86% 30.01 in 3.0 mi ENE 5.8 mph - 0.00 in Snow Light Snow
9:27 PM 24.8 °F 17.9 °F 21.2 °F 86% 30.01 in 1.8 mi East 5.8 mph - 0.01 in Snow Light Snow
9:38 PM 24.8 °F 17.9 °F 21.2 °F 86% 30.01 in 3.0 mi East 5.8 mph - 0.01 in Snow Light Snow
9:53 PM 25.0 °F 18.1 °F 21.0 °F 85% 30.04 in 2.5 mi East 5.8 mph - 0.01 in Snow Light Snow
10:02 PM 24.8 °F 16.9 °F 21.2 °F 86% 30.00 in 3.0 mi East 6.9 mph - 0.00 in Snow Light Snow
10:11 PM 24.8 °F 15.3 °F 21.2 °F 86% 30.01 in 2.0 mi East 9.2 mph - 0.01 in Snow Light Snow
10:15 PM 24.8 °F 16.9 °F 21.2 °F 86% 30.01 in 1.2 mi East 6.9 mph - 0.01 in Snow Light Snow
10:22 PM 24.8 °F 16.9 °F 21.2 °F 86% 30.01 in 0.8 mi East 6.9 mph - 0.02 in Snow Light Snow
10:35 PM 24.8 °F 16.9 °F 21.2 °F 86% 30.01 in 1.2 mi East 6.9 mph - 0.02 in Snow Light Snow
10:41 PM 24.8 °F 16.9 °F 21.2 °F 86% 30.01 in 2.0 mi East 6.9 mph - 0.02 in Snow Light Snow
10:46 PM 24.8 °F 16.9 °F 21.2 °F 86% 30.00 in 1.8 mi East 6.9 mph - 0.02 in Snow Light Snow
10:53 PM 25.0 °F 17.1 °F 21.9 °F 88% 30.04 in 0.8 mi East 6.9 mph - 0.03 in Snow Light Snow
11:05 PM 24.8 °F 17.9 °F 21.2 °F 86% 30.00 in 1.0 mi East 5.8 mph - 0.01 in Snow Light Snow
11:19 PM 24.8 °F 16.9 °F 21.2 °F 86% 29.99 in 2.5 mi East 6.9 mph - 0.01 in Snow Light Snow
11:26 PM 24.8 °F 16.9 °F 21.2 °F 86% 29.99 in 2.0 mi East 6.9 mph - 0.01 in Snow Light Snow
11:29 PM 24.8 °F 16.9 °F 21.2 °F 86% 29.99 in 1.8 mi East 6.9 mph - 0.01 in Snow Light Snow
11:45 PM 24.8 °F 16.9 °F 21.2 °F 86% 29.98 in 0.8 mi East 6.9 mph - 0.02 in Snow Light Snow
11:53 PM 25.0 °F 16.3 °F 21.9 °F 88% 30.02 in 0.8 mi East 8.1 mph - 0.02 in Snow Light Snow